Погода в Хоботово

Россия / Тамбовская область     53°04′24″N   40°22′50″E
темп.,
°C
ветер,
м/с
пор.,
м/с
влажн.,
%
обл.,
%
осадки,
мм/ч
давл.,
гПа
погр.,
м
20 июня, вс
вс2000:00+16ююв12800 0.0 102511
03:00+15юв12810 0.0 102511
06:00+17юв22800 0.0 102485
09:00+22вюв23670 0.0 1024453
12:00+25вюв33570 0.0 1024940
15:00+26юв34542 0.0 10231162
18:00+26ююв2368100 0.0 1021199
21:00+21юв2276100 0.0 102211
21 июня, пн
пн2100:00+19вюв2280100 0.0 102215
03:00+18вюв3382100 0.0 102132
06:00+19вюв2585100 0.0 1022129
09:00+24юв356877 0.0 1022403
12:00+27юв4555100 0.0 1021789
15:00+28юв4558100 0.0 1021960
18:00+26юв2372100 0.0 102073
21:00+22юв3381100 0.0 102142
22 июня, вт
вт2200:00+20вюв338197 0.0 102133
03:00+18вюв228240 0.0 102222
06:00+19вюв248242 0.0 1022104
09:00+25вюв34675 0.0 1022373
12:00+28в33520 0.0 1022887
15:00+30в33461 0.0 10211134
18:00+29в2261100 0.0 1020131
21:00+23в227094 0.0 102112
23 июня, ср
ср2300:00+21вюв22805 0.0 102111
03:00+20всв33750 0.0 102238
06:00+20в36810 0.0 1022119
09:00+26всв34670 0.0 1022362
12:00+29в33540 0.0 10221090
15:00+31в22450 0.0 10211355
18:00+30всв12575 0.0 1021893
21:00+24св22735 0.0 102118
24 июня, чт
чт2400:00+22вюв22795 0.0 102111
03:00+21всв227414 0.0 102222
06:00+22в23805 0.0 102290
09:00+27в34665 0.0 1022405
12:00+30в335240 0.0 10211259
15:00+31всв2248100 0.0 10211667
18:00+30зсз1160100 0.0 1019243
21:00+23св487899 0.0 1020160